Waarnemingen

Advertentie
Mijn weer
Kleine Brogel, België (6479): temperatuur & dauwpunt: 14.03.2019 23:00:00 - 20.03.2019 23:00:00 (CET)Kleine Brogel, België (6479): windsnelheid & windstoten: 14.03.2019 23:00:00 - 20.03.2019 23:00:00 (CET)Kleine Brogel, België (6479): windrichting: 14.03.2019 23:00:00 - 20.03.2019 23:00:00 (CET)Kleine Brogel, België (6479): luchtdruk: 14.03.2019 23:00:00 - 20.03.2019 23:00:00 (CET)Kleine Brogel, België (6479): zicht: 14.03.2019 23:00:00 - 20.03.2019 23:00:00 (CET)
Datum & Tijd tt [°C] td [°C] ff [km/u] ff [kn] fx [km/u] fx [kn] dd ppp [hPa] vv [km]
20.03.2019 23:00:00 - - - - - - - - -
20.03.2019 22:00:00 5,3 3,9 4 2 - - N 1035,5 14
20.03.2019 21:00:00 6,9 5,1 4 2 4 2 N 1035,2 20
20.03.2019 20:00:00 8,7 5,7 4 2 7 4 N 1034,9 20
20.03.2019 19:00:00 10,2 5,9 4 2 - - N 1034,5 20
20.03.2019 18:00:00 12,3 6,0 4 2 11 6 N 1034,2 20
20.03.2019 17:00:00 12,6 6,0 7 4 14 8 ZW 1034,0 20
20.03.2019 16:00:00 13,0 6,5 7 4 - - ZW 1034,2 20
20.03.2019 15:00:00 12,6 6,3 11 6 25 14 ZW 1034,4 20
20.03.2019 14:00:00 12,6 5,7 14 8 22 12 WZW 1034,5 20
20.03.2019 13:00:00 13,0 6,1 14 8 - - ZW 1034,5 20
20.03.2019 12:00:00 11,6 6,0 14 8 25 14 ZW 1034,7 20
20.03.2019 11:00:00 11,3 6,4 14 8 22 12 ZW 1034,4 20
20.03.2019 10:00:00 9,9 5,7 14 8 - - ZW 1034,2 20
20.03.2019 09:00:00 8,1 4,3 11 6 14 8 ZZW 1033,9 20
20.03.2019 08:00:00 6,1 3,0 7 4 11 6 ZW 1033,7 20
20.03.2019 07:00:00 5,0 2,3 4 2 - - - 1033,0 19
20.03.2019 06:00:00 5,0 1,9 7 4 11 6 ZZW 1032,5 19
20.03.2019 05:00:00 5,0 1,8 4 2 7 4 N 1032,5 19
20.03.2019 04:00:00 4,3 1,6 4 2 - - N 1032,2 20
20.03.2019 03:00:00 3,7 0,9 4 2 7 4 N 1032,7 19
20.03.2019 02:00:00 2,0 0,4 4 2 7 4 N 1032,7 20
20.03.2019 01:00:00 3,5 1,0 4 2 - - N 1032,4 12
20.03.2019 00:00:00 2,0 0,5 4 2 7 4 N 1032,2 19
19.03.2019 23:00:00 3,9 1,4 4 2 7 4 N 1032,0 18
19.03.2019 22:00:00 4,9 1,5 4 2 - - N 1032,0 15
19.03.2019 21:00:00 7,0 1,5 4 2 7 4 N 1031,5 20
19.03.2019 20:00:00 8,0 1,4 4 2 7 4 N 1030,7 20
19.03.2019 19:00:00 9,1 1,7 4 2 - - N 1030,2 20
19.03.2019 18:00:00 9,9 1,9 4 2 11 6 N 1029,7 20
19.03.2019 17:00:00 10,5 1,5 4 2 14 8 N 1029,4 20
19.03.2019 16:00:00 10,9 1,4 7 4 - - ZW 1029,4 20
19.03.2019 15:00:00 11,2 0,8 4 2 11 6 N 1029,4 20
19.03.2019 14:00:00 10,6 0,9 4 2 18 10 N 1029,4 15
19.03.2019 13:00:00 10,3 1,6 11 6 - - WZW 1029,4 15
19.03.2019 12:00:00 10,8 2,4 11 6 22 12 ZW 1029,2 15
19.03.2019 11:00:00 9,0 1,4 7 4 18 10 ZW 1029,2 15
19.03.2019 10:00:00 7,4 0,1 11 6 - - ZZW 1029,2 15
19.03.2019 09:00:00 4,1 0,3 7 4 14 8 ZW 1028,7 15
19.03.2019 08:00:00 1,2 -0,5 4 2 7 4 N 1028,5 15
19.03.2019 07:00:00 -0,3 -1,6 4 2 - - N 1027,9 17
19.03.2019 06:00:00 -1,2 -2,4 4 2 7 4 N 1027,4 19
19.03.2019 05:00:00 -1,4 -2,6 4 2 7 4 N 1027,2 17
19.03.2019 04:00:00 -1,6 -2,7 4 2 - - N 1026,9 19
19.03.2019 03:00:00 -1,7 -2,9 4 2 4 2 N 1026,5 19
19.03.2019 02:00:00 -1,6 -2,9 4 2 4 2 N 1026,0 19
19.03.2019 01:00:00 -2,1 -4,0 4 2 - - N 1026,0 17
19.03.2019 00:00:00 -0,7 -2,8 4 2 4 2 N 1026,0 20
18.03.2019 23:00:00 0,0 -2,9 4 2 7 4 N 1025,4 20
18.03.2019 22:00:00 0,6 -1,7 4 2 - - N 1024,9 20
18.03.2019 21:00:00 2,2 -1,6 4 2 7 4 N 1024,0 20
18.03.2019 20:00:00 3,7 -1,4 4 2 11 6 N 1023,3 20
18.03.2019 19:00:00 6,0 -2,2 4 2 - - N 1022,6 20
18.03.2019 18:00:00 8,1 -4,2 11 6 29 16 WNW 1021,7 20
18.03.2019 17:00:00 9,3 -3,7 14 8 32 18 WNW 1021,1 20
18.03.2019 16:00:00 10,5 -1,5 11 6 - - NW 1020,5 20
18.03.2019 15:00:00 10,0 -2,7 14 8 29 16 NW 1020,1 20
18.03.2019 14:00:00 9,2 -2,4 18 10 32 18 W 1019,8 20
18.03.2019 13:00:00 7,4 0,4 11 6 - - W 1019,7 20
18.03.2019 12:00:00 7,2 2,2 11 6 25 14 W 1019,5 18
18.03.2019 11:00:00 5,0 1,3 14 8 32 18 NNW 1019,2 18
18.03.2019 10:00:00 6,6 3,4 14 8 - - WZW 1018,5 18
18.03.2019 09:00:00 4,6 2,8 14 8 25 14 WZW 1017,7 9
18.03.2019 08:00:00 3,4 2,2 14 8 22 12 ZW 1017,2 15
18.03.2019 07:00:00 2,4 1,4 14 8 - - ZW 1016,3 16
18.03.2019 06:00:00 2,5 1,4 18 10 25 14 ZW 1015,5 20
18.03.2019 05:00:00 3,2 1,5 18 10 29 16 ZW 1014,7 20
18.03.2019 04:00:00 3,0 1,3 18 10 - - WZW 1013,7 20
18.03.2019 03:00:00 2,3 0,8 18 10 25 14 ZW 1013,5 20
18.03.2019 02:00:00 2,1 0,8 18 10 22 12 ZW 1013,2 20
18.03.2019 01:00:00 2,2 0,8 18 10 - - ZW 1012,7 20
18.03.2019 00:00:00 2,5 0,8 18 10 25 14 ZW 1012,5 20
17.03.2019 23:00:00 3,5 0,7 14 8 22 12 ZW 1012,0 20
17.03.2019 22:00:00 3,5 1,4 11 6 - - WZW 1011,6 20
17.03.2019 21:00:00 3,2 0,5 14 8 25 14 ZW 1010,7 20
17.03.2019 20:00:00 3,0 0,6 14 8 25 14 ZW 1010,2 20
17.03.2019 19:00:00 3,3 0,9 18 10 - - ZW 1009,6 20
17.03.2019 18:00:00 4,0 1,4 18 10 47 25 ZW 1008,7 20
17.03.2019 17:00:00 6,0 2,8 11 6 29 16 ZW 1007,1 20
17.03.2019 16:00:00 6,8 2,8 18 10 - - WZW 1006,6 20
17.03.2019 15:00:00 7,7 1,9 22 12 47 25 WZW 1005,7 20
17.03.2019 14:00:00 8,8 2,1 22 12 36 19 W 1005,0 20
17.03.2019 13:00:00 6,2 3,1 18 10 - - WZW 1004,7 16
17.03.2019 12:00:00 7,9 3,3 18 10 47 25 NW 1003,7 20
17.03.2019 11:00:00 9,8 3,3 32 18 47 25 WZW 1003,0 20
17.03.2019 10:00:00 8,5 4,8 29 16 - - WZW 1002,2 20
17.03.2019 09:00:00 7,5 5,5 24 13 36 19 WZW 1001,2 10
17.03.2019 08:00:00 7,3 6,0 25 14 40 21 WZW 1000,5 20
17.03.2019 07:00:00 7,4 6,6 31 17 - - ZW 999,4 3,4
17.03.2019 06:00:00 7,8 6,1 29 16 43 23 ZW 998,5 12
17.03.2019 05:00:00 8,3 5,3 29 16 50 27 ZW 998,4 16
17.03.2019 04:00:00 9,0 4,5 32 18 - - ZW 998,8 20
17.03.2019 03:00:00 10,1 3,6 32 18 58 31 ZW 999,1 20
17.03.2019 02:00:00 10,5 4,1 29 16 54 29 ZW 999,8 20
17.03.2019 01:00:00 11,0 5,1 32 18 - - ZW 1000,6 20
17.03.2019 00:00:00 11,1 5,7 29 16 43 23 ZW 1001,2 20
16.03.2019 23:00:00 11,1 5,7 29 16 50 27 ZZW 1001,8 20
16.03.2019 22:00:00 11,1 5,7 29 16 - - ZW 1002,2 20
16.03.2019 21:00:00 11,1 5,6 32 18 47 25 ZZW 1003,0 20
16.03.2019 20:00:00 11,1 5,5 22 12 40 21 ZZW 1003,8 20
16.03.2019 19:00:00 11,0 5,6 22 12 - - ZZW 1004,2 20
16.03.2019 18:00:00 11,3 5,0 29 16 54 29 ZW 1005,0 20
16.03.2019 17:00:00 11,4 5,0 32 18 54 29 ZW 1005,7 20
16.03.2019 16:00:00 11,4 5,4 32 18 - - ZW 1006,5 20
16.03.2019 15:00:00 11,1 5,3 32 18 65 35 ZW 1007,2 20
16.03.2019 14:00:00 11,3 5,3 40 21 58 31 WZW 1007,6 20
16.03.2019 13:00:00 11,0 6,7 36 19 - - ZW 1008,2 20
16.03.2019 12:00:00 11,1 6,0 40 21 65 35 WZW 1008,7 20
16.03.2019 11:00:00 11,3 5,9 32 18 61 33 WZW 1008,7 20
16.03.2019 10:00:00 10,6 7,1 36 19 - - ZW 1009,3 20
16.03.2019 09:00:00 9,6 7,9 36 19 54 29 WZW 1009,7 18
16.03.2019 08:00:00 9,5 8,2 32 18 50 27 WZW 1010,1 17
16.03.2019 07:00:00 9,6 8,5 36 19 - - WZW 1009,8 15
16.03.2019 06:00:00 7,3 7,1 4 2 11 6 N 1009,8 4,1
16.03.2019 05:00:00 7,0 6,6 7 4 22 12 WZW 1010,3 2,1
16.03.2019 04:00:00 7,3 6,7 14 8 - - WZW 1010,7 2,6
16.03.2019 03:00:00 8,3 7,6 11 6 22 12 WZW 1011,2 16
16.03.2019 02:00:00 8,4 7,8 11 6 22 12 WZW 1011,3 4,4
16.03.2019 01:00:00 9,0 8,2 11 6 - - W 1011,2 9
16.03.2019 00:00:00 9,6 7,9 14 8 29 16 W 1010,7 13
15.03.2019 23:00:00 10,3 8,3 14 8 29 16 W 1009,8 20
15.03.2019 22:00:00 10,6 9,4 14 8 - - W 1009,2 20
15.03.2019 21:00:00 10,8 9,2 14 8 36 19 W 1008,6 20
15.03.2019 20:00:00 10,8 9,4 22 12 43 23 W 1007,8 18
15.03.2019 19:00:00 10,6 10,0 24 13 - - W 1007,2 3,6
15.03.2019 18:00:00 11,0 10,1 34 18 54 29 WZW 1005,8 6
15.03.2019 17:00:00 12,3 9,2 40 21 54 29 WZW 1005,6 20
15.03.2019 16:00:00 12,4 9,3 32 18 - - WZW 1005,6 12
15.03.2019 15:00:00 12,5 9,3 32 18 54 29 WZW 1005,6 12
15.03.2019 14:00:00 12,3 9,3 32 18 47 25 WZW 1005,6 12
15.03.2019 13:00:00 11,6 9,7 29 16 - - WZW 1006,0 12
15.03.2019 12:00:00 11,6 9,6 29 16 50 27 WZW 1005,7 12
15.03.2019 11:00:00 11,1 9,7 29 16 50 27 WZW 1005,2 15
15.03.2019 10:00:00 10,5 9,6 25 14 - - WZW 1004,6 3,5
15.03.2019 09:00:00 9,2 8,7 24 13 36 19 WZW 1004,2 3,5
15.03.2019 08:00:00 7,5 7,0 18 10 25 14 ZW 1004,3 2,5
15.03.2019 07:00:00 6,5 6,1 11 6 - - ZZW 1005,1 3,6
15.03.2019 06:00:00 6,6 5,3 11 6 22 12 ZZW 1005,8 10
15.03.2019 05:00:00 7,0 3,9 14 8 29 16 ZW 1006,6 20
15.03.2019 04:00:00 6,9 2,9 14 8 - - ZW 1007,2 20
15.03.2019 03:00:00 7,0 3,0 18 10 29 16 WZW 1007,8 20
15.03.2019 02:00:00 7,0 3,0 22 12 29 16 WZW 1008,3 18
15.03.2019 01:00:00 6,9 3,1 22 12 - - WZW 1008,1 20
15.03.2019 00:00:00 7,1 2,9 14 8 22 12 WZW 1007,7 20
14.03.2019 23:00:00 7,4 2,6 11 6 18 10 WZW 1007,3 17

tt = temperatuur
td = dauwpunt
ff = windsnelheid
fx = windstoten
dd = windrichting
ppp = luchtdruk
vv = zicht

Weerstations in de omgeving